Regional Weather Roundup
Issued by NWS Jackson, KY

Home | Current Version | Previous Version | Text Only | Print | Product List | Glossary On
Versions: 1 2 3 4 5 6 7 8 9 10 11 12 13 14 15 16 17 18 19 20 21 22 23 24 25 26 27 28 29 30 31 32 33 34 35 36 37 38 39 40 41 42 43 44 45 46 47 48 49 50
000
ASUS43 KJKL 290810
RWRJKL

EAST KENTUCKY HOURLY WEATHER ROUNDUP
NATIONAL WEATHER SERVICE JACKSON KY
400 AM EDT SAT AUG 29 2015

NOTE: "FAIR" INDICATES FEW OR NO CLOUDS BELOW 12,000 FEET WITH
NO SIGNIFICANT WEATHER AND/OR OBSTRUCTIONS TO VISIBILITY.

* THESE REPORTS ARE NOT UNDER NWS QUALITY CONTROL AND MAY NOT
  REPORT WEATHER SUCH AS PRECIPITATION AND FOG.

KYZ079-080-083-085-087-088-110-112-115-119-120-290900
...EASTERN KENTUCKY...

CITY           SKY/WX    TMP DP  RH WIND       PRES   REMARKS
JACKSON        MOCLDY    68  61  78 SE3       30.16S
LONDON         MOCLDY    66  61  84 CALM      30.16R
SOMERSET*      CLEAR     63  63 100 CALM      30.15S
MONTICELLO*    CLEAR     60  60 100 CALM      30.17S
MIDDLESBORO*   MOCLDY    61  61  99 CALM      30.18R
BLACK MTN*       N/A     61  55  82 S2          N/A
PIKEVILLE APT* MOCLDY    66  63  88 S5        30.17R
BIG SANDY*     PTSUNNY   63  63  99 CALM      30.16S
MOREHEAD APT*  SUNNY     68  59  73 CALM      30.16S
$$

KYZ035-036-041-042-044-050-067-078-099-290900
...CENTRAL KENTUCKY...

CITY           SKY/WX    TMP DP  RH WIND       PRES   REMARKS
MT STERLING*   CLEAR     63  61  94 SE5       30.15S
DANVILLE*      PTCLDY    61  61 100 SW3       30.15R
RICHMOND*      PTCLDY    63  61  94 SE3       30.13S
LEXINGTON      CLEAR     68  62  81 SE7       30.13S
FRANKFORT      CLEAR     63  59  87 CALM      30.11S
$$

KYZ091>093-OHZ055-061-077-WVZ005-015-034-035-042-290900
...SOUTHERN OHIO/WEST VIRGINIA...

CITY           SKY/WX    TMP DP  RH WIND       PRES   REMARKS
COVINGTON      CLOUDY    68  59  73 CALM      30.11S
COLUMBUS       CLEAR     60  56  86 CALM      30.13F
DAYTON         CLOUDY    64  59  83 SE7       30.13F
WILMINGTON     PTCLDY    61  56  83 SE3       30.13F
HUNTINGTON     CLEAR     61  60  97 CALM      30.14F
CHARLESTON     CLEAR     61  59  93 CALM      30.16S
PINEVILLE*     CLEAR     59  59 100 MISG      30.25S FOG
BECKLEY        CLEAR     64  57  78 SE7       30.24R
BLUEFIELD      PTCLDY    68  55  63 S5        30.26S
$$

VAZ002-007-008-TNZ017-027-036-066-071-290900
...SOUTHWEST VIRGINIA/EAST TENNESSEE...

CITY           SKY/WX    TMP DP  RH WIND       PRES   REMARKS
WISE*          MOCLDY    66  54  63 SW5       30.25S
JONESVILLE*    PTSUNNY   61  61 100 CALM      30.21R
ABINGDON*      PTCLDY    64  58  83 CALM      30.23S
BRISTOL        MOCLDY    62  59  90 CALM      30.20R
KNOXVILLE      CLOUDY    69  66  90 CALM      30.15R
OAK RIDGE      MOCLDY    68  65  90 CALM      30.17S
CROSSVILLE     MOCLDY    69  62  78 CALM      30.19S
NASHVILLE      CLEAR     71  65  81 S3        30.10S
$$

...KEY TO REMARKS...
VSB - VISIBILITY IN MILES
WCI - WIND CHILL INDEX
HX  - HEAT INDEX

$$



USA.gov is the U.S. government's official web portal to all federal, state and local government web resources and services.